This is the latest recevied weather packets stored in our database for station/object K1BES. If no packets are shown the sender has not sent any weather packets the latest 10 day(s).
| Time | Temp. | Humidity | Pressure | Rain* | Wind** | Luminosity | Snow |
|---|---|---|---|---|---|---|---|
| 1777640777 | 27.22° C | 77% | 1015.1 hPa | 0 mm | - | 334 W/m² | - |
| 1777640474 | 27.22° C | 78% | 1015.3 hPa | 0 mm | - | 180 W/m² | - |
| 1777640171 | 26.67° C | 78% | 1015.1 hPa | 0 mm | - | 297 W/m² | - |
| 1777639868 | 26.67° C | 78% | 1015.2 hPa | 0 mm | - | 278 W/m² | - |
| 1777639565 | 26.67° C | 79% | 1015.1 hPa | 0 mm | - | 175 W/m² | - |
| 1777639262 | 26.11° C | 81% | 1014.9 hPa | 0 mm | - | 223 W/m² | - |
| 1777638958 | 26.11° C | 82% | 1014.9 hPa | 0 mm | - | 208 W/m² | - |
| 1777638654 | 25.56° C | 83% | 1015 hPa | 0 mm | - | 140 W/m² | - |
| 1777638351 | 25.56° C | 84% | 1014.8 hPa | 0 mm | - | 175 W/m² | - |
| 1777638046 | 25° C | 84% | 1014.8 hPa | 0 mm | - | 166 W/m² | - |
| 1777637743 | 25° C | 86% | 1014.9 hPa | 0 mm | - | 137 W/m² | - |
| 1777637440 | 24.44° C | 89% | 1014.7 hPa | 0 mm | - | 120 W/m² | - |
| 1777637137 | 23.89° C | 91% | 1015 hPa | 0 mm | - | 97 W/m² | - |
| 1777636833 | 23.33° C | 94% | 1014.8 hPa | 0 mm | - | 74 W/m² | - |
| 1777636530 | 22.78° C | 94% | 1014.8 hPa | 0 mm | - | 59 W/m² | - |
| 1777636226 | 22.78° C | 94% | 1014.6 hPa | 0 mm | - | 38 W/m² | - |
| 1777635920 | 22.22° C | 94% | 1014.7 hPa | 0 mm | - | 34 W/m² | - |
| 1777635616 | 22.22° C | 94% | 1014.9 hPa | 0 mm | - | 31 W/m² | - |
| 1777635313 | 22.22° C | 94% | 1014.5 hPa | 0 mm | - | 28 W/m² | - |
| 1777635010 | 22.22° C | 94% | 1014.6 hPa | 0 mm | - | 24 W/m² | - |
| 1777634706 | 22.22° C | 94% | 1014.6 hPa | 0 mm | - | 22 W/m² | - |
| 1777634404 | 22.22° C | 94% | 1014.5 hPa | 0 mm | - | 18 W/m² | - |
| 1777634101 | 22.22° C | 94% | 1014.4 hPa | 0 mm | - | 15 W/m² | - |
| 1777633797 | 22.22° C | 94% | 1014.4 hPa | 0 mm | - | 12 W/m² | - |
| 1777633495 | 22.22° C | 94% | 1014.2 hPa | 0 mm | - | 10 W/m² | - |
* Rain latest hour (hover to see other rain measurements)
** Current wind speed in m/s (hover to see current wind gust speed)